Location: Cannifist
(18.2333°N, 63.0167°W)
Time: 22:44:03
(UTC+00:00)

APEX - Pass Details

Date: 27 February 2020
Orbit: 330 x 1120 km, 69.9° (Epoch: 01 April)

Event Time Altitude Azimuth Distance (km) Brightness Sun altitude
Rises 22:48:29 0° 193° (SSW) 2,529 7.0 -8.2°
Reaches altitude 10° 22:50:23 10° 190° (S) 1,751 6.1 -8.6°
Maximum altitude 22:54:16 71° 106° (ESE) 647 3.5 -9.5°
Drops below altitude 10° 22:59:16 10° 23° (NNE) 2,241 6.1 -10.7°
Sets 23:01:58 0° 21° (NNE) 3,312 7.0 -11.3°
